Regional Weather Roundup
Issued by NWS

Home | Current Version | Previous Version | Text Only | Print | Product List | Glossary On
Versions: 1 2 3 4 5 6 7 8 9 10 11 12 13 14 15 16 17 18 19 20 21 22 23 24 25 26 27 28 29 30 31 32 33 34 35 36 37 38 39 40 41 42 43 44 45 46 47 48 49 50
000
ASUS46 KSEW 192310
RWRWA

WASHINGTON REGIONAL WEATHER ROUNDUP
NATIONAL WEATHER SERVICE SEATTLE WA
300 PM PST FRI DEC 19 2014

NOTE:"FAIR" INDICATES FEW OR NO CLOUDS BELOW 12,000 FEET WITH NO
SIGNIFICANT WEATHER AND/OR OBSTRUCTIONS TO VISIBILITY.

WAZ505-507>509-200000-
SEATTLE, TACOMA, EVERETT, AND VICINITY

CITY           SKY/WX    TMP DP  RH WIND       PRES   REMARKS
EVERETT        CLOUDY    49  40  71 S15G23    29.94R
BOEING FIELD   MOCLDY    53  39  59 S8        29.95S
RENTON         CLOUDY    52  39  61 S10       29.95S
SEATAC AIRPORT MOCLDY    50  38  63 S10       29.95S
JBLM-MCCHORD   PTCLDY    50  41  73 S10       29.96R
PUYALLUP       NOT AVBL
JBLM-FT LEWIS  MOCLDY    50  41  71 S9        29.95S
TACOMA NARROWS MOCLDY    50  40  68 S14G23    29.95R
$$

WAZ001-503-506-510-514-515-200000-
NORTH INTERIOR

CITY           SKY/WX    TMP DP  RH WIND       PRES   REMARKS
BELLINGHAM     CLOUDY    50  41  71 SE14      29.90R
FRIDAY HARBOR  MOCLDY    49  43  80 E5        29.90S
EASTSOUND      MOCLDY    48  43  81 S6        29.88S
PORT ANGELES   LGT RAIN  47  41  80 W6        29.89S
NAS WHIDBEY    MOCLDY    53  41  63 S21G28    29.91R
BURLINGTON     CLOUDY    50  43  76 SE8       29.93S
$$

WAZ020-022-039-040-504-511-512-200000-
SOUTHWEST INTERIOR

CITY           SKY/WX    TMP DP  RH WIND       PRES   REMARKS
SHELTON        CLOUDY    49  43  80 S9        29.92R
OLYMPIA        CLOUDY    49  40  71 S14G22    29.95S
CHEHALIS       CLOUDY    50  43  76 S15       29.96F
KELSO          PTSUNNY   52  41  66 S7        30.02S
VANCOUVER      CLOUDY    52  42  69 S5        30.00S
SCAPPOOSE, OR  CLOUDY    51  44  77 VRB5      29.99S
PORTLAND, OR   PTSUNNY   53  44  71 S7        30.00F
$$

WAZ021-516-517-200000-
WASHINGTON COAST

CITY           SKY/WX    TMP DP  RH WIND       PRES   REMARKS
FORKS          CLOUDY    48  46  93 VRB5      29.85S FOG
HOQUIAM        MOSUNNY   49  45  86 SE15      29.92R
ASTORIA, OR    PTSUNNY   50  44  80 SE7       29.93S
$$

WAZ019-023-024-040-518-519-200000-
CASCADE MOUNTAINS AND COLUMBIA GORGE

CITY           SKY/WX    TMP DP  RH WIND       PRES   REMARKS
STAMPEDE PASS  NOT AVBL
TROUTDALE, OR  PTSUNNY   54  41  61 SW8       29.99F
THE DALLES, OR CLEAR     50  41  71 NW5       30.01R
$$

WAZ026-027-041>044-520-521-200000-
EAST SLOPES

CITY           SKY/WX    TMP DP  RH WIND       PRES   REMARKS
OMAK           CLOUDY    38  35  89 CALM      29.93R
WENATCHEE      CLEAR     44  36  73 E3        29.93R
ELLENSBURG     CLEAR     47  36  65 W10       29.92R
YAKIMA         PTCLDY    42  37  82 SW3       29.96R
$$

WAZ028-034-035-200000-
COLUMBIA BASIN

CITY           SKY/WX    TMP DP  RH WIND       PRES   REMARKS
EPHRATA        CLOUDY    43  38  82 SW3       29.94R
MOSES LAKE     PTCLDY    43  40  89 CALM      29.95R
PASCO          CLEAR     52  39  61 SW12      29.99R
HERMISTON, OR  CLEAR     51  38  60 W10       29.99S
$$

WAZ036>038-200000-
NORTHEAST WASHINGTON

CITY           SKY/WX    TMP DP  RH WIND       PRES   REMARKS
SPOKANE GEIGER CLOUDY    41  36  82 SW18      29.92R
SPOKANE FELTS  CLOUDY    44  36  73 SW8       29.94R
FAIRCHILD AFB  CLOUDY    40  37  91 SW14      29.92R
COEURDALENE,ID CLOUDY    39  36  87 S9        29.92R
DEER PARK      CLOUDY    41  37  86 S12       29.93R
$$

WAZ029>033-200000-
SOUTHEAST WASHINGTON

CITY           SKY/WX    TMP DP  RH WIND       PRES   REMARKS
PULLMAN        CLOUDY    41  36  82 SW13      29.98R
LEWISTON, ID   FOG       42  42 100 N3        29.99R VSB 1/4
WALLA WALLA    CLOUDY    49  41  74 S9        30.00R
PENDLETON, OR  MOCLDY    46  40  79 SW5       29.99R
$$



USA.gov is the U.S. government's official web portal to all federal, state and local government web resources and services.